Regional Weather Roundup
Issued by NWS

Home | Current Version | Previous Version | Text Only | Print | Product List | Glossary On
Versions: 1 2 3 4 5 6 7 8 9 10 11 12 13 14 15 16 17 18 19 20 21 22 23 24 25 26 27
000
ASCA42 TJSJ 201910
RWRPR
PUERTO RICO/U.S. VIRGIN ISLANDS HOURLY WEATHER ROUNDUP
NATIONAL WEATHER SERVICE SAN JUAN PR
300 PM AST SAT JAN 20 2018

PRZ001>002-007>008-010-202000-
PUERTO RICO

CITY           SKY/WX    TMP DP  RH WIND       PRES   REMARKS
SAN JUAN LMM   MOSUNNY   82  72  69 E16       30.02F
AGUADILLA      MOSUNNY   82  70  65 E17       30.03F
$$

VIZ001>002-202000-
U.S. VIRGIN ISLANDS

CITY           SKY/WX    TMP DP  RH WIND       PRES   REMARKS
CHARLOTTE AMA  MOSUNNY   82  72  69 NE10      30.02F
CHRISTIANSTED  MOSUNNY   81  72  74 E13       30.02F
$$

HOURLY WEATHER ROUNDUP FOR THE NEWS MEDIA

CITY           SKY/WX    TMP DP  RH WIND       PRES   REMARKS
ORLANDO        FAIR      70  50  49 S5        30.23F
NEW YORK       PTSUNNY   52  27  38 W17       29.86R
NEWARK         PTSUNNY   54  25  32 W24G30    29.86R
CHICAGO        PTSUNNY   44  31  60 SW9       29.91F
HARTFORD       FAIR      52  25  35 W20G29    29.71S
BOSTON         PTSUNNY   46  26  45 W16G25    29.69R
DALLAS         PTSUNNY   67  52  58 SW15G24   29.94F
PHILADELPHIA   PTSUNNY   54  29  38 SW13      29.92F
LOS ANGELES    MOSUNNY   60  29  30 N20G28    30.06S
WASHINGTON DC  PTSUNNY   60  31  33 SW9       29.96F



USA.gov is the U.S. government's official web portal to all federal, state and local government web resources and services.